Location: Erba
(45.8000°N, 9.2500°E)
Time: 10:40:27
(UTC+01:00)

ISS - Pass Details

Date: 21 January 2019
Orbit: 404 x 407 km, 51.6° (Epoch: 16 January)

Event Time Altitude Azimuth Distance (km) Brightness Sun altitude
Rises 18:40:40 0° 188° (S) 2,310 0.3 -15.2°
Reaches altitude 10° 18:43:50 10° 154° (SSE) 1,457 -1.2 -15.7°
Enters shadow 18:44:20 11° 145° (SE) 1,397 -1.3 -15.8°
